Sign in

Goboko Update

Goboko is set to continue

The Goboko booking system is to continue under a new operator, a member of one of our longest-subscribed flying clubs

The new and previous operators of the site are working to ensure there will be no interruption to your booking service as the transition takes place. Of course, aircraft booking will continue to be free

Thank you for your continued commitment to Goboko

Info

Aviation weather

METAR KDAB 200853Z 31003KT 10SM FEW070 OVC100 21/21 A3009 RMK AO2 SLP189 60000 T02110211 55000 $

TAF KDAB 200527Z 2006/2106 14003KT P6SM -RA FEW010 OVC100 FM201200 14010KT P6SM VCSH SCT025 OVC050 TEMPO 2015/2019 3SM SHRA BKN025 FM202300 12005KT P6SM FEW025 BKN070 OVC100

Aviation weather from ADDS. Re-check weather before flight.

-